Location: Joplin, MO
(37.0842°N, 94.5133°W)
Time: 21:37:44
(UTC+02:00)

Courier 1B Rocket - Pass Details

Date: 09 April 2023
Orbit: 920 x 1202 km, 28.2° (Epoch: 05 June)

Event Time Altitude Azimuth Distance (km) Brightness Sun altitude
Rises 00:00:18 0° 252° (WSW) 4,074 9.4 32.0°
Reaches altitude 10° 00:03:16 10° 246° (WSW) 3,123 9.2 31.4°
Maximum altitude 00:10:34 44° 178° (S) 1,602 6.6 30.0°
Drops below altitude 10° 00:17:46 10° 109° (ESE) 3,079 7.2 28.6°
Sets 00:20:41 0° 103° (ESE) 4,013 7.7 28.1°
